Year,Month,Day,Hour,Minute,Value (Times are PST for windgust in km/hr)
2015,08,29,00,00,3.20
2015,08,29,00,01,3.20
2015,08,29,00,02,6.40
2015,08,29,00,03,4.80
2015,08,29,00,04,4.80
2015,08,29,00,05,4.80
2015,08,29,00,06,4.80
2015,08,29,00,07,4.80
2015,08,29,00,08,6.40
2015,08,29,00,09,4.80
2015,08,29,00,10,6.40
2015,08,29,00,11,6.40
2015,08,29,00,12,6.40
2015,08,29,00,13,4.80
2015,08,29,00,14,4.80
2015,08,29,00,15,4.80
2015,08,29,00,16,4.80
2015,08,29,00,17,8.10
2015,08,29,00,18,6.40
2015,08,29,00,19,6.40
2015,08,29,00,20,6.40
2015,08,29,00,21,8.10
2015,08,29,00,22,8.10
2015,08,29,00,23,6.40
2015,08,29,00,24,6.40
2015,08,29,00,25,6.40
2015,08,29,00,26,8.10
2015,08,29,00,27,6.40
2015,08,29,00,28,6.40
2015,08,29,00,29,4.80
2015,08,29,00,30,4.80
2015,08,29,00,31,4.80
2015,08,29,00,32,4.80
2015,08,29,00,33,3.20
2015,08,29,00,34,4.80
2015,08,29,00,35,4.80
2015,08,29,00,36,6.40
2015,08,29,00,37,4.80
2015,08,29,00,38,4.80
2015,08,29,00,39,8.10
2015,08,29,00,40,8.10
2015,08,29,00,41,4.80
2015,08,29,00,42,3.20
2015,08,29,00,43,4.80
2015,08,29,00,44,4.80
2015,08,29,00,45,6.40
2015,08,29,00,46,4.80
2015,08,29,00,47,3.20
2015,08,29,00,48,3.20
2015,08,29,00,49,3.20
2015,08,29,00,50,4.80
2015,08,29,00,51,3.20
2015,08,29,00,52,4.80
2015,08,29,00,53,4.80
2015,08,29,00,54,3.20
2015,08,29,00,55,3.20
2015,08,29,00,56,3.20
2015,08,29,00,57,4.80
2015,08,29,00,58,4.80
2015,08,29,00,59,3.20
2015,08,29,01,00,4.80
2015,08,29,01,01,1.60
2015,08,29,01,02,1.60
2015,08,29,01,05,1.60
2015,08,29,01,06,1.60
2015,08,29,01,07,4.80
2015,08,29,01,08,6.40
2015,08,29,01,09,8.10
2015,08,29,01,10,8.10
2015,08,29,01,11,6.40
2015,08,29,01,12,9.60
2015,08,29,01,13,6.40
2015,08,29,01,14,9.60
2015,08,29,01,15,9.60
2015,08,29,01,16,6.40
2015,08,29,01,17,9.60
2015,08,29,01,18,9.60
2015,08,29,01,19,6.40
2015,08,29,01,20,9.60
2015,08,29,01,21,9.60
2015,08,29,01,22,9.60
2015,08,29,01,23,9.60
2015,08,29,01,24,8.10
2015,08,29,01,25,8.10
2015,08,29,01,26,9.60
2015,08,29,01,27,9.60
2015,08,29,01,28,9.60
2015,08,29,01,29,9.60
2015,08,29,01,30,8.10
2015,08,29,01,31,8.10
2015,08,29,01,32,9.60
2015,08,29,01,33,8.10
2015,08,29,01,34,9.60
2015,08,29,01,35,11.30
2015,08,29,01,36,9.60
2015,08,29,01,37,8.10
2015,08,29,01,38,9.60
2015,08,29,01,39,8.10
2015,08,29,01,40,9.60
2015,08,29,01,41,6.40
2015,08,29,01,42,4.80
2015,08,29,01,43,6.40
2015,08,29,01,44,3.20
2015,08,29,01,45,3.20
2015,08,29,01,46,8.10
2015,08,29,01,47,8.10
2015,08,29,01,48,4.80
2015,08,29,01,49,8.10
2015,08,29,01,50,8.10
2015,08,29,01,51,6.40
2015,08,29,01,52,8.10
2015,08,29,01,53,6.40
2015,08,29,01,54,8.10
2015,08,29,01,55,8.10
2015,08,29,01,56,8.10
2015,08,29,01,57,11.30
2015,08,29,01,58,8.10
2015,08,29,01,59,8.10
2015,08,29,02,00,6.40
2015,08,29,02,01,4.80
2015,08,29,02,02,6.40
2015,08,29,02,03,4.80
2015,08,29,02,04,4.80
2015,08,29,02,05,4.80
2015,08,29,02,06,3.20
2015,08,29,02,07,1.60
2015,08,29,02,08,4.80
2015,08,29,02,09,4.80
2015,08,29,02,10,4.80
2015,08,29,02,11,3.20
2015,08,29,02,12,4.80
2015,08,29,02,13,6.40
2015,08,29,02,14,6.40
2015,08,29,02,15,6.40
2015,08,29,02,16,8.10
2015,08,29,02,17,6.40
2015,08,29,02,18,8.10
2015,08,29,02,19,9.60
2015,08,29,02,20,8.10
2015,08,29,02,21,9.60
2015,08,29,02,22,6.40
2015,08,29,02,23,6.40
2015,08,29,02,24,6.40
2015,08,29,02,25,4.80
2015,08,29,02,26,4.80
2015,08,29,02,27,6.40
2015,08,29,02,28,9.60
2015,08,29,02,29,8.10
2015,08,29,02,30,9.60
2015,08,29,02,31,11.30
2015,08,29,02,32,11.30
2015,08,29,02,33,11.30
2015,08,29,02,34,16.10
2015,08,29,02,35,11.30
2015,08,29,02,36,14.50
2015,08,29,02,37,12.90
2015,08,29,02,38,12.90
2015,08,29,02,39,16.10
2015,08,29,02,40,9.60
2015,08,29,02,41,11.30
2015,08,29,02,42,9.60
2015,08,29,02,43,11.30
2015,08,29,02,44,9.60
2015,08,29,02,45,9.60
2015,08,29,02,46,9.60
2015,08,29,02,47,9.60
2015,08,29,02,48,14.50
2015,08,29,02,49,12.90
2015,08,29,02,50,11.30
2015,08,29,02,51,11.30
2015,08,29,02,52,14.50
2015,08,29,02,53,9.60
2015,08,29,02,54,12.90
2015,08,29,02,55,6.40
2015,08,29,02,56,8.10
2015,08,29,02,57,9.60
2015,08,29,02,58,8.10
2015,08,29,02,59,12.90
2015,08,29,03,00,9.60
2015,08,29,03,01,9.60
2015,08,29,03,02,11.30
2015,08,29,03,03,12.90
2015,08,29,03,04,11.30
2015,08,29,03,05,8.10
2015,08,29,03,06,9.60
2015,08,29,03,07,8.10
2015,08,29,03,08,11.30
2015,08,29,03,09,9.60
2015,08,29,03,10,8.10
2015,08,29,03,11,8.10
2015,08,29,03,12,6.40
2015,08,29,03,13,6.40
2015,08,29,03,14,8.10
2015,08,29,03,15,8.10
2015,08,29,03,16,8.10
2015,08,29,03,17,6.40
2015,08,29,03,18,6.40
2015,08,29,03,19,8.10
2015,08,29,03,20,8.10
2015,08,29,03,21,8.10
2015,08,29,03,22,14.50
2015,08,29,03,23,12.90
2015,08,29,03,24,12.90
2015,08,29,03,25,11.30
2015,08,29,03,26,12.90
2015,08,29,03,27,9.60
2015,08,29,03,28,12.90
2015,08,29,03,29,8.10
2015,08,29,03,30,8.10
2015,08,29,03,31,11.30
2015,08,29,03,32,12.90
2015,08,29,03,33,8.10
2015,08,29,03,34,9.60
2015,08,29,03,35,11.30
2015,08,29,03,36,11.30
2015,08,29,03,37,11.30
2015,08,29,03,38,8.10
2015,08,29,03,39,8.10
2015,08,29,03,40,9.60
2015,08,29,03,41,11.30
2015,08,29,03,42,12.90
2015,08,29,03,43,14.50
2015,08,29,03,44,11.30
2015,08,29,03,45,14.50
2015,08,29,03,46,11.30
2015,08,29,03,47,9.60
2015,08,29,03,48,9.60
2015,08,29,03,49,4.80
2015,08,29,03,50,4.80
2015,08,29,03,51,4.80
2015,08,29,03,52,8.10
2015,08,29,03,53,4.80
2015,08,29,03,54,4.80
2015,08,29,03,55,6.40
2015,08,29,03,56,8.10
2015,08,29,03,57,8.10
2015,08,29,03,58,9.60
2015,08,29,03,59,11.30
2015,08,29,04,00,9.60
2015,08,29,04,01,11.30
2015,08,29,04,02,8.10
2015,08,29,04,03,8.10
2015,08,29,04,04,9.60
2015,08,29,04,05,9.60
2015,08,29,04,06,12.90
2015,08,29,04,07,9.60
2015,08,29,04,08,8.10
2015,08,29,04,09,8.10
2015,08,29,04,10,9.60
2015,08,29,04,11,11.30
2015,08,29,04,12,11.30
2015,08,29,04,13,12.90
2015,08,29,04,14,9.60
2015,08,29,04,15,11.30
2015,08,29,04,16,11.30
2015,08,29,04,17,9.60
2015,08,29,04,18,11.30
2015,08,29,04,19,14.50
2015,08,29,04,20,9.60
2015,08,29,04,21,9.60
2015,08,29,04,22,9.60
2015,08,29,04,23,14.50
2015,08,29,04,24,12.90
2015,08,29,04,25,11.30
2015,08,29,04,26,11.30
2015,08,29,04,27,11.30
2015,08,29,04,28,9.60
2015,08,29,04,29,9.60
2015,08,29,04,30,6.40
2015,08,29,04,31,11.30
2015,08,29,04,32,11.30
2015,08,29,04,33,9.60
2015,08,29,04,34,14.50
2015,08,29,04,35,14.50
2015,08,29,04,36,12.90
2015,08,29,04,37,14.50
2015,08,29,04,38,16.10
2015,08,29,04,39,14.50
2015,08,29,04,40,16.10
2015,08,29,04,41,11.30
2015,08,29,04,42,11.30
2015,08,29,04,43,11.30
2015,08,29,04,44,12.90
2015,08,29,04,45,11.30
2015,08,29,04,46,12.90
2015,08,29,04,47,16.10
2015,08,29,04,48,14.50
2015,08,29,04,49,16.10
2015,08,29,04,50,17.70
2015,08,29,04,51,17.70
2015,08,29,04,52,17.70
2015,08,29,04,53,11.30
2015,08,29,04,54,16.10
2015,08,29,04,55,16.10
2015,08,29,04,56,9.60
2015,08,29,04,57,8.10
2015,08,29,04,58,8.10
2015,08,29,04,59,8.10
2015,08,29,05,00,8.10
2015,08,29,05,01,11.30
2015,08,29,05,02,12.90
2015,08,29,05,03,14.50
2015,08,29,05,04,11.30
2015,08,29,05,05,11.30
2015,08,29,05,06,9.60
2015,08,29,05,07,6.40
2015,08,29,05,08,9.60
2015,08,29,05,09,11.30
2015,08,29,05,10,6.40
2015,08,29,05,11,8.10
2015,08,29,05,12,11.30
2015,08,29,05,13,12.90
2015,08,29,05,14,11.30
2015,08,29,05,15,9.60
2015,08,29,05,16,11.30
2015,08,29,05,17,8.10
2015,08,29,05,18,9.60
2015,08,29,05,19,12.90
2015,08,29,05,20,9.60
2015,08,29,05,21,11.30
2015,08,29,05,22,8.10
2015,08,29,05,23,8.10
2015,08,29,05,24,6.40
2015,08,29,05,25,3.20
2015,08,29,05,26,1.60
2015,08,29,05,27,1.60
2015,08,29,05,28,1.60
2015,08,29,05,29,6.40
2015,08,29,05,30,6.40
2015,08,29,05,31,6.40
2015,08,29,05,32,4.80
2015,08,29,05,33,4.80
2015,08,29,05,34,3.20
2015,08,29,05,35,4.80
2015,08,29,05,36,4.80
2015,08,29,05,37,3.20
2015,08,29,05,38,6.40
2015,08,29,05,39,8.10
2015,08,29,05,40,6.40
2015,08,29,05,41,6.40
2015,08,29,05,42,4.80
2015,08,29,05,43,4.80
2015,08,29,05,44,3.20
2015,08,29,05,45,8.10
2015,08,29,05,46,12.90
2015,08,29,05,47,14.50
2015,08,29,05,48,16.10
2015,08,29,05,49,19.30
2015,08,29,05,50,24.20
2015,08,29,05,51,20.90
2015,08,29,05,52,11.30
2015,08,29,05,53,6.40
2015,08,29,05,54,11.30
2015,08,29,05,55,9.60
2015,08,29,05,56,6.40
2015,08,29,05,57,9.60
2015,08,29,05,58,6.40
2015,08,29,05,59,1.60
2015,08,29,06,00,1.60
2015,08,29,06,01,1.60
2015,08,29,06,02,4.80
2015,08,29,06,03,6.40
2015,08,29,06,04,6.40
2015,08,29,06,05,8.10
2015,08,29,06,06,9.60
2015,08,29,06,07,8.10
2015,08,29,06,08,8.10
2015,08,29,06,09,9.60
2015,08,29,06,10,8.10
2015,08,29,06,11,9.60
2015,08,29,06,12,12.90
2015,08,29,06,13,8.10
2015,08,29,06,14,8.10
2015,08,29,06,15,9.60
2015,08,29,06,16,8.10
2015,08,29,06,17,6.40
2015,08,29,06,18,6.40
2015,08,29,06,19,9.60
2015,08,29,06,20,8.10
2015,08,29,06,21,8.10
2015,08,29,06,22,9.60
2015,08,29,06,23,11.30
2015,08,29,06,24,6.40
2015,08,29,06,25,4.80
2015,08,29,06,26,4.80
2015,08,29,06,27,4.80
2015,08,29,06,28,8.10
2015,08,29,06,29,6.40
2015,08,29,06,30,6.40
2015,08,29,06,31,6.40
2015,08,29,06,32,6.40
2015,08,29,06,33,4.80
2015,08,29,06,34,6.40
2015,08,29,06,35,6.40
2015,08,29,06,36,8.10
2015,08,29,06,37,11.30
2015,08,29,06,38,9.60
2015,08,29,06,39,6.40
2015,08,29,06,40,11.30
2015,08,29,06,41,8.10
2015,08,29,06,42,8.10
2015,08,29,06,43,11.30
2015,08,29,06,44,11.30
2015,08,29,06,45,12.90
2015,08,29,06,46,9.60
2015,08,29,06,47,12.90
2015,08,29,06,48,11.30
2015,08,29,06,49,12.90
2015,08,29,06,50,12.90
2015,08,29,06,51,12.90
2015,08,29,06,52,16.10
2015,08,29,06,53,14.50
2015,08,29,06,54,14.50
2015,08,29,06,55,12.90
2015,08,29,06,56,14.50
2015,08,29,06,57,16.10
2015,08,29,06,58,11.30
2015,08,29,06,59,11.30
2015,08,29,07,00,11.30
2015,08,29,07,01,16.10
2015,08,29,07,02,12.90
2015,08,29,07,03,22.50
2015,08,29,07,04,14.50
2015,08,29,07,05,16.10
2015,08,29,07,06,12.90
2015,08,29,07,07,17.70
2015,08,29,07,08,17.70
2015,08,29,07,09,16.10
2015,08,29,07,10,19.30
2015,08,29,07,11,14.50
2015,08,29,07,12,14.50
2015,08,29,07,13,17.70
2015,08,29,07,14,11.30
2015,08,29,07,15,16.10
2015,08,29,07,16,8.10
2015,08,29,07,17,12.90
2015,08,29,07,18,12.90
2015,08,29,07,19,9.60
2015,08,29,07,20,12.90
2015,08,29,07,21,16.10
2015,08,29,07,22,17.70
2015,08,29,07,23,12.90
2015,08,29,07,24,12.90
2015,08,29,07,25,16.10
2015,08,29,07,26,16.10
2015,08,29,07,27,14.50
2015,08,29,07,28,17.70
2015,08,29,07,29,8.10
2015,08,29,07,30,9.60
2015,08,29,07,31,11.30
2015,08,29,07,32,9.60
2015,08,29,07,33,9.60
2015,08,29,07,34,9.60
2015,08,29,07,35,11.30
2015,08,29,07,36,8.10
2015,08,29,07,37,12.90
2015,08,29,07,38,12.90
2015,08,29,07,39,12.90
2015,08,29,07,40,6.40
2015,08,29,07,41,9.60
2015,08,29,07,42,16.10
2015,08,29,07,43,9.60
2015,08,29,07,44,1.60
2015,08,29,07,45,8.10
2015,08,29,07,46,12.90
2015,08,29,07,47,9.60
2015,08,29,07,48,8.10
2015,08,29,07,49,8.10
2015,08,29,07,50,9.60
2015,08,29,07,51,8.10
2015,08,29,07,52,8.10
2015,08,29,07,53,8.10
2015,08,29,07,54,3.20
2015,08,29,07,55,11.30
2015,08,29,07,56,4.80
2015,08,29,07,57,1.60
2015,08,29,07,58,4.80
2015,08,29,07,59,4.80
2015,08,29,08,00,6.40
2015,08,29,08,01,6.40
2015,08,29,08,02,8.10
2015,08,29,08,03,4.80
2015,08,29,08,04,4.80
2015,08,29,08,05,3.20
2015,08,29,08,06,1.60
2015,08,29,08,08,1.60
2015,08,29,08,09,3.20
2015,08,29,08,10,1.60
2015,08,29,08,11,4.80
2015,08,29,08,12,6.40
2015,08,29,08,13,4.80
2015,08,29,08,14,8.10
2015,08,29,08,15,3.20
2015,08,29,08,16,3.20
2015,08,29,08,17,1.60
2015,08,29,08,18,16.10
2015,08,29,08,19,11.30
2015,08,29,08,20,9.60
2015,08,29,08,21,4.80
2015,08,29,08,22,3.20
2015,08,29,08,23,9.60
2015,08,29,08,24,11.30
2015,08,29,08,25,8.10
2015,08,29,08,26,8.10
2015,08,29,08,27,6.40
2015,08,29,08,28,12.90
2015,08,29,08,29,11.30
2015,08,29,08,30,9.60
2015,08,29,08,31,11.30
2015,08,29,08,32,8.10
2015,08,29,08,33,11.30
2015,08,29,08,34,11.30
2015,08,29,08,35,8.10
2015,08,29,08,36,9.60
2015,08,29,08,37,8.10
2015,08,29,08,38,3.20
2015,08,29,08,39,6.40
2015,08,29,08,40,4.80
2015,08,29,08,41,8.10
2015,08,29,08,42,8.10
2015,08,29,08,43,6.40
2015,08,29,08,44,11.30
2015,08,29,08,45,9.60
2015,08,29,08,46,11.30
2015,08,29,08,47,9.60
2015,08,29,08,48,8.10
2015,08,29,08,49,4.80
2015,08,29,08,50,6.40
2015,08,29,08,51,9.60
2015,08,29,08,52,4.80
2015,08,29,08,53,4.80
2015,08,29,08,54,3.20
2015,08,29,08,55,3.20
2015,08,29,08,56,8.10
2015,08,29,08,57,4.80
2015,08,29,08,58,1.60
2015,08,29,08,59,1.60
2015,08,29,09,00,4.80
2015,08,29,09,01,6.40
2015,08,29,09,02,12.90
2015,08,29,09,03,17.70
2015,08,29,09,04,12.90
2015,08,29,09,05,6.40
2015,08,29,09,06,8.10
2015,08,29,09,07,16.10
2015,08,29,09,08,12.90
2015,08,29,09,09,6.40
2015,08,29,09,10,12.90
2015,08,29,09,11,9.60
2015,08,29,09,12,8.10
2015,08,29,09,13,11.30
2015,08,29,09,14,9.60
2015,08,29,09,15,8.10
2015,08,29,09,16,8.10
2015,08,29,09,17,16.10
2015,08,29,09,18,11.30
2015,08,29,09,19,14.50
2015,08,29,09,20,16.10
2015,08,29,09,21,16.10
2015,08,29,09,22,12.90
2015,08,29,09,23,12.90
2015,08,29,09,24,14.50
2015,08,29,09,25,12.90
2015,08,29,09,26,11.30
2015,08,29,09,27,12.90
2015,08,29,09,28,8.10
2015,08,29,09,29,17.70
2015,08,29,09,30,17.70
2015,08,29,09,31,17.70
2015,08,29,09,32,14.50
2015,08,29,09,33,12.90
2015,08,29,09,34,19.30
2015,08,29,09,35,6.40
2015,08,29,09,36,9.60
2015,08,29,09,37,22.50
2015,08,29,09,38,17.70
2015,08,29,09,39,16.10
2015,08,29,09,40,17.70
2015,08,29,09,41,14.50
2015,08,29,09,42,11.30
2015,08,29,09,43,11.30
2015,08,29,09,44,17.70
2015,08,29,09,45,24.20
2015,08,29,09,46,19.30
2015,08,29,09,47,19.30
2015,08,29,09,48,19.30
2015,08,29,09,49,22.50
2015,08,29,09,50,19.30
2015,08,29,09,51,29.00
2015,08,29,09,52,17.70
2015,08,29,09,53,11.30
2015,08,29,09,54,6.40
2015,08,29,09,55,16.10
2015,08,29,09,56,14.50
2015,08,29,09,57,14.50
2015,08,29,09,58,11.30
2015,08,29,09,59,24.20
2015,08,29,10,00,20.90
2015,08,29,10,01,22.50
2015,08,29,10,02,17.70
2015,08,29,10,03,29.00
2015,08,29,10,04,24.20
2015,08,29,10,05,29.00
2015,08,29,10,06,24.20
2015,08,29,10,07,14.50
2015,08,29,10,08,20.90
2015,08,29,10,09,14.50
2015,08,29,10,10,33.80
2015,08,29,10,11,16.10
2015,08,29,10,12,25.70
2015,08,29,10,13,27.40
2015,08,29,10,14,22.50
2015,08,29,10,15,22.50
2015,08,29,10,16,22.50
2015,08,29,10,17,35.40
2015,08,29,10,18,20.90
2015,08,29,10,19,20.90
2015,08,29,10,20,35.40
2015,08,29,10,21,24.20
2015,08,29,10,22,20.90
2015,08,29,10,23,24.20
2015,08,29,10,24,22.50
2015,08,29,10,25,25.70
2015,08,29,10,26,29.00
2015,08,29,10,27,32.20
2015,08,29,10,28,29.00
2015,08,29,10,29,27.40
2015,08,29,10,30,24.20
2015,08,29,10,31,32.20
2015,08,29,10,32,37.00
2015,08,29,10,33,40.20
2015,08,29,10,34,33.80
2015,08,29,10,35,24.20
2015,08,29,10,36,24.20
2015,08,29,10,37,30.60
2015,08,29,10,38,33.80
2015,08,29,10,39,19.30
2015,08,29,10,40,24.20
2015,08,29,10,41,29.00
2015,08,29,10,42,38.60
2015,08,29,10,43,41.80
2015,08,29,10,44,38.60
2015,08,29,10,45,35.40
2015,08,29,10,46,35.40
2015,08,29,10,47,35.40
2015,08,29,10,48,27.40
2015,08,29,10,49,38.60
2015,08,29,10,50,33.80
2015,08,29,10,51,46.70
2015,08,29,10,52,33.80
2015,08,29,10,53,40.20
2015,08,29,10,54,37.00
2015,08,29,10,55,45.10
2015,08,29,10,56,35.40
2015,08,29,10,57,43.50
2015,08,29,10,58,35.40
2015,08,29,10,59,29.00
2015,08,29,11,00,29.00
2015,08,29,11,01,37.00
2015,08,29,11,02,41.80
2015,08,29,11,03,40.20
2015,08,29,11,04,46.70
2015,08,29,11,05,38.60
2015,08,29,11,06,30.60
2015,08,29,11,07,20.90
2015,08,29,11,08,25.70
2015,08,29,11,09,43.50
2015,08,29,11,10,32.20
2015,08,29,11,11,33.80
2015,08,29,11,12,45.10
2015,08,29,11,13,35.40
2015,08,29,11,14,46.70
2015,08,29,11,15,35.40
2015,08,29,11,16,40.20
2015,08,29,11,17,35.40
2015,08,29,11,18,32.20
2015,08,29,11,19,38.60
2015,08,29,11,20,45.10
2015,08,29,11,21,40.20
2015,08,29,11,22,32.20
2015,08,29,11,23,29.00
2015,08,29,11,24,37.00
2015,08,29,11,25,33.80
2015,08,29,11,26,33.80
2015,08,29,11,27,43.50
2015,08,29,11,28,35.40
2015,08,29,11,29,29.00
2015,08,29,11,30,30.60
2015,08,29,11,31,40.20
2015,08,29,11,32,37.00
2015,08,29,11,33,33.80
2015,08,29,11,34,32.20
2015,08,29,11,35,25.70
2015,08,29,11,36,43.50
2015,08,29,11,37,29.00
2015,08,29,11,38,33.80
2015,08,29,11,39,24.20
2015,08,29,11,40,30.60
2015,08,29,11,41,20.90
2015,08,29,11,42,12.90
2015,08,29,11,43,16.10
2015,08,29,11,44,24.20
2015,08,29,11,45,20.90
2015,08,29,11,46,27.40
2015,08,29,11,47,22.50
2015,08,29,11,48,16.10
2015,08,29,11,49,19.30
2015,08,29,11,50,14.50
2015,08,29,11,51,20.90
2015,08,29,11,52,20.90
2015,08,29,11,53,19.30
2015,08,29,11,54,17.70
2015,08,29,11,55,22.50
2015,08,29,11,56,20.90
2015,08,29,11,57,19.30
2015,08,29,11,58,17.70
2015,08,29,11,59,17.70
2015,08,29,12,00,24.20
2015,08,29,12,01,27.40
2015,08,29,12,02,17.70
2015,08,29,12,03,19.30
2015,08,29,12,04,19.30
2015,08,29,12,05,24.20
2015,08,29,12,06,14.50
2015,08,29,12,07,19.30
2015,08,29,12,08,20.90
2015,08,29,12,09,12.90
2015,08,29,12,10,9.60
2015,08,29,12,11,8.10
2015,08,29,12,12,11.30
2015,08,29,12,13,6.40
2015,08,29,12,14,6.40
2015,08,29,12,15,6.40
2015,08,29,12,16,3.20
2015,08,29,12,17,6.40
2015,08,29,12,18,9.60
2015,08,29,12,19,6.40
2015,08,29,12,20,8.10
2015,08,29,12,21,6.40
2015,08,29,12,22,6.40
2015,08,29,12,23,8.10
2015,08,29,12,24,8.10
2015,08,29,12,25,12.90
2015,08,29,12,26,8.10
2015,08,29,12,27,9.60
2015,08,29,12,28,9.60
2015,08,29,12,29,11.30
2015,08,29,12,30,8.10
2015,08,29,12,31,6.40
2015,08,29,12,32,14.50
2015,08,29,12,33,16.10
2015,08,29,12,34,14.50
2015,08,29,12,35,11.30
2015,08,29,12,36,6.40
2015,08,29,12,37,8.10
2015,08,29,12,38,6.40
2015,08,29,12,39,8.10
2015,08,29,12,40,9.60
2015,08,29,12,41,4.80
2015,08,29,12,42,4.80
2015,08,29,12,43,6.40
2015,08,29,12,44,4.80
2015,08,29,12,45,1.60
2015,08,29,12,46,3.20
2015,08,29,12,47,9.60
2015,08,29,12,48,12.90
2015,08,29,12,49,17.70
2015,08,29,12,50,12.90
2015,08,29,12,51,20.90
2015,08,29,12,52,25.70
2015,08,29,12,53,19.30
2015,08,29,12,54,20.90
2015,08,29,12,55,19.30
2015,08,29,12,56,9.60
2015,08,29,12,57,9.60
2015,08,29,12,58,16.10
2015,08,29,12,59,12.90
2015,08,29,13,00,12.90
2015,08,29,13,01,11.30
2015,08,29,13,02,14.50
2015,08,29,13,03,16.10
2015,08,29,13,04,14.50
2015,08,29,13,05,14.50
2015,08,29,13,06,11.30
2015,08,29,13,07,9.60
2015,08,29,13,08,14.50
2015,08,29,13,09,12.90
2015,08,29,13,10,19.30
2015,08,29,13,11,14.50
2015,08,29,13,12,22.50
2015,08,29,13,13,16.10
2015,08,29,13,14,11.30
2015,08,29,13,15,12.90
2015,08,29,13,16,14.50
2015,08,29,13,17,14.50
2015,08,29,13,18,20.90
2015,08,29,13,19,17.70
2015,08,29,13,20,16.10
2015,08,29,13,21,11.30
2015,08,29,13,22,14.50
2015,08,29,13,23,11.30
2015,08,29,13,24,20.90
2015,08,29,13,25,20.90
2015,08,29,13,26,19.30
2015,08,29,13,27,11.30
2015,08,29,13,28,11.30
2015,08,29,13,29,8.10
2015,08,29,13,30,11.30
2015,08,29,13,31,14.50
2015,08,29,13,32,12.90
2015,08,29,13,33,14.50
2015,08,29,13,34,16.10
2015,08,29,13,35,14.50
2015,08,29,13,36,24.20
2015,08,29,13,37,17.70
2015,08,29,13,38,14.50
2015,08,29,13,39,11.30
2015,08,29,13,40,11.30
2015,08,29,13,41,17.70
2015,08,29,13,42,12.90
2015,08,29,13,43,16.10
2015,08,29,13,44,16.10
2015,08,29,13,45,20.90
2015,08,29,13,46,16.10
2015,08,29,13,47,17.70
2015,08,29,13,48,24.20
2015,08,29,13,49,32.20
2015,08,29,13,50,33.80
2015,08,29,13,51,33.80
2015,08,29,13,52,45.10
2015,08,29,13,53,51.50
2015,08,29,13,54,27.40
2015,08,29,13,55,30.60
2015,08,29,13,56,51.50
2015,08,29,13,57,35.40
2015,08,29,13,58,45.10
2015,08,29,13,59,37.00
2015,08,29,14,00,48.30
2015,08,29,14,01,40.20
2015,08,29,14,02,41.80
2015,08,29,14,03,43.50
2015,08,29,14,04,57.90
2015,08,29,14,05,59.50
2015,08,29,14,06,66.00
2015,08,29,14,07,46.70
2015,08,29,14,08,45.10
2015,08,29,14,09,45.10
2015,08,29,14,10,22.50
2015,08,29,14,11,37.00
2015,08,29,14,12,45.10
2015,08,29,14,13,64.40
2015,08,29,14,14,41.80
2015,08,29,14,15,48.30
2015,08,29,14,16,48.30
2015,08,29,14,17,43.50
2015,08,29,14,18,46.70
2015,08,29,14,19,59.50
2015,08,29,14,20,48.30
2015,08,29,14,21,40.20
2015,08,29,14,22,45.10
2015,08,29,14,23,35.40
2015,08,29,14,24,48.30
2015,08,29,14,25,40.20
2015,08,29,14,26,33.80
2015,08,29,14,27,33.80
2015,08,29,14,28,38.60
2015,08,29,14,29,48.30
2015,08,29,14,30,46.70
2015,08,29,14,31,32.20
2015,08,29,14,32,32.20
2015,08,29,14,33,35.40
2015,08,29,14,34,38.60
2015,08,29,14,35,43.50
2015,08,29,14,36,48.30
2015,08,29,14,37,30.60
2015,08,29,14,38,30.60
2015,08,29,14,39,40.20
2015,08,29,14,40,33.80
2015,08,29,14,41,40.20
2015,08,29,14,42,27.40
2015,08,29,14,43,51.50
2015,08,29,14,44,32.20
2015,08,29,14,45,41.80
2015,08,29,14,46,37.00
2015,08,29,14,47,30.60
2015,08,29,14,48,22.50
2015,08,29,14,49,27.40
2015,08,29,14,50,35.40
2015,08,29,14,51,41.80
2015,08,29,14,52,30.60
2015,08,29,14,53,38.60
2015,08,29,14,54,25.70
2015,08,29,14,55,33.80
2015,08,29,14,56,38.60
2015,08,29,14,57,30.60
2015,08,29,14,58,41.80
2015,08,29,14,59,27.40
2015,08,29,15,00,22.50
2015,08,29,15,01,30.60
2015,08,29,15,02,35.40
2015,08,29,15,03,27.40
2015,08,29,15,04,29.00
2015,08,29,15,05,19.30
2015,08,29,15,06,29.00
2015,08,29,15,07,29.00
2015,08,29,15,08,24.20
2015,08,29,15,09,17.70
2015,08,29,15,10,19.30
2015,08,29,15,11,16.10
2015,08,29,15,12,24.20
2015,08,29,17,51,4.80
2015,08,29,17,52,8.10
2015,08,29,17,53,4.80
2015,08,29,17,54,8.10
2015,08,29,17,55,8.10
2015,08,29,17,56,6.40
2015,08,29,17,57,3.20
2015,08,29,17,58,4.80
2015,08,29,17,59,8.10
2015,08,29,18,00,4.80
2015,08,29,18,01,6.40
2015,08,29,18,02,9.60
2015,08,29,18,03,9.60
2015,08,29,18,04,4.80
2015,08,29,18,05,11.30
2015,08,29,18,06,14.50
2015,08,29,18,07,17.70
2015,08,29,18,08,17.70
2015,08,29,18,09,14.50
2015,08,29,18,10,14.50
2015,08,29,18,11,11.30
2015,08,29,18,12,11.30
2015,08,29,18,13,9.60
2015,08,29,18,14,11.30
2015,08,29,18,15,8.10
2015,08,29,18,16,14.50
2015,08,29,18,17,20.90
2015,08,29,18,18,12.90
2015,08,29,18,19,14.50
2015,08,29,18,20,9.60
2015,08,29,18,21,9.60
2015,08,29,18,22,9.60
2015,08,29,18,23,12.90
2015,08,29,18,24,14.50
2015,08,29,18,25,17.70
2015,08,29,18,26,11.30
2015,08,29,18,27,8.10
2015,08,29,18,28,12.90
2015,08,29,18,29,12.90
2015,08,29,18,30,11.30
2015,08,29,18,31,6.40
2015,08,29,18,32,8.10
2015,08,29,18,33,6.40
2015,08,29,18,34,8.10
2015,08,29,18,35,6.40
2015,08,29,18,36,4.80
2015,08,29,18,37,3.20
2015,08,29,18,38,4.80
2015,08,29,18,39,4.80
2015,08,29,18,40,6.40
2015,08,29,18,41,6.40
2015,08,29,18,42,4.80
2015,08,29,18,43,4.80
2015,08,29,18,44,4.80
2015,08,29,18,45,3.20
2015,08,29,18,46,6.40
2015,08,29,18,47,6.40
2015,08,29,18,48,6.40
2015,08,29,18,49,4.80
2015,08,29,18,50,4.80
2015,08,29,18,51,4.80
2015,08,29,18,52,4.80
2015,08,29,18,53,4.80
2015,08,29,18,54,4.80
2015,08,29,18,55,4.80
2015,08,29,18,56,3.20
2015,08,29,18,57,3.20
2015,08,29,18,58,6.40
2015,08,29,18,59,6.40
2015,08,29,19,00,6.40
2015,08,29,19,01,8.10
2015,08,29,19,02,8.10
2015,08,29,19,03,4.80
2015,08,29,19,04,6.40
2015,08,29,19,05,8.10
2015,08,29,19,06,6.40
2015,08,29,19,07,4.80
2015,08,29,19,08,6.40
2015,08,29,19,09,8.10
2015,08,29,19,10,8.10
2015,08,29,19,11,8.10
2015,08,29,19,12,9.60
2015,08,29,19,13,9.60
2015,08,29,19,14,12.90
2015,08,29,19,15,14.50
2015,08,29,19,16,12.90
2015,08,29,19,17,9.60
2015,08,29,19,18,11.30
2015,08,29,19,19,11.30
2015,08,29,19,20,9.60
2015,08,29,19,21,11.30
2015,08,29,19,22,9.60
2015,08,29,19,23,11.30
2015,08,29,19,24,11.30
2015,08,29,19,25,9.60
2015,08,29,19,26,11.30
2015,08,29,19,27,12.90
2015,08,29,19,28,11.30
2015,08,29,19,29,11.30
2015,08,29,19,30,11.30
2015,08,29,19,31,12.90
2015,08,29,19,32,11.30
2015,08,29,19,33,8.10
2015,08,29,19,34,9.60
2015,08,29,19,35,9.60
2015,08,29,19,36,8.10
2015,08,29,19,37,9.60
2015,08,29,19,38,9.60
2015,08,29,19,39,6.40
2015,08,29,19,40,6.40
2015,08,29,19,41,8.10
2015,08,29,19,42,6.40
2015,08,29,19,43,4.80
2015,08,29,19,44,6.40
2015,08,29,19,45,6.40
2015,08,29,19,46,8.10
2015,08,29,19,47,6.40
2015,08,29,19,48,8.10
2015,08,29,19,49,6.40
2015,08,29,19,50,9.60
2015,08,29,19,51,11.30
2015,08,29,19,52,6.40
2015,08,29,19,53,6.40
2015,08,29,19,54,8.10
2015,08,29,19,55,4.80
2015,08,29,19,56,4.80
2015,08,29,19,57,4.80
2015,08,29,19,58,8.10
2015,08,29,19,59,4.80
2015,08,29,20,00,4.80
2015,08,29,20,01,3.20
2015,08,29,20,02,3.20
2015,08,29,20,03,4.80
2015,08,29,20,04,4.80
2015,08,29,20,05,4.80
2015,08,29,20,06,4.80
2015,08,29,20,07,6.40
2015,08,29,20,08,8.10
2015,08,29,20,09,8.10
2015,08,29,20,10,6.40
2015,08,29,20,11,4.80
2015,08,29,20,12,6.40
2015,08,29,20,13,4.80
2015,08,29,20,14,4.80
2015,08,29,20,15,4.80
2015,08,29,20,16,4.80
2015,08,29,20,17,4.80
2015,08,29,20,18,4.80
2015,08,29,20,19,8.10
2015,08,29,20,20,8.10
2015,08,29,20,21,8.10
2015,08,29,20,22,8.10
2015,08,29,20,23,11.30